Regional Weather Roundup
Issued by NWS Upton, NY

Current Version | Previous Version | Text Only | Print | Product List | Glossary On
Versions: 1 2 3 4 5 6 7 8 9 10 11 12 13 14 15 16 17 18 19 20 21 22 23 24 25 26 27 28 29 30 31 32 33 34 35 36 37 38 39 40 41 42 43 44 45 46 47
000
ASUS41 KOKX 280505
RWROKX

REGIONAL WEATHER ROUNDUP
NATIONAL WEATHER SERVICE NEW YORK NY
1200 AM EST FRI NOV 28 2014

NOTE: "FAIR" INDICATES FEW OR NO CLOUDS BELOW 12,000 FEET WITH NO
SIGNIFICANT WEATHER AND/OR OBSTRUCTIONS TO VISIBILITY.

NYZ071-072-176-178-NJZ106-104-280600-
NEW YORK CITY METRO AREA


CITY           SKY/WX    TMP DP  RH WIND       PRES   REMARKS
CENTRAL PARK   PTCLDY    34  24  67 MISG      30.07F
LAGUARDIA APRT PTCLDY    35  25  66 NW9       30.05F WCI  28
KENNEDY INTL   MOCLDY    36  25  64 NW13      30.07S WCI  27
NEWARK/LIBERTY PTCLDY    32  24  72 W9        30.07S WCI  24
BRNX BOT. GARD   N/A    N/A N/A N/A NW3       30.04F
TETERBORO      CLEAR     33  24  69 NW8       30.05F WCI  26
$$

NYZ177-179-078>081-280600-
LONG ISLAND NEW YORK

CITY           SKY/WX    TMP DP  RH WIND       PRES   REMARKS
FARMINGDALE    CLOUDY    36  27  69 NW12      30.05R WCI  28
ISLIP          CLOUDY    35  28  75 NW9       30.02S WCI  28
SHIRLEY        CLOUDY    35  26  69 NW8       30.04S WCI  29
WESTHAMPTON    CLOUDY    36  26  67 NW13      30.03S WCI  27
MONTAUK POINT    N/A     36  30  79 N9        30.01S WCI  29
$$

NYZ052-065-067-280600-
HUDSON VALLEY

CITY           SKY/WX    TMP DP  RH WIND       PRES   REMARKS
WHITE PLAINS   CLOUDY    32  27  81 N8        30.01F WCI  25
NEWBURGH       NOT AVBL
MONTGOMERY     PTCLDY    29  23  78 W8        30.04S WCI  21
POUGHKEEPSIE   CLOUDY    28  26  92 CALM      30.05F FOG
ALBANY         FLURRIES  27  25  92 CALM      30.05F
$$

NJZ001-105-106-008-010-013-015-019>022-104-280600-
NEW JERSEY

CITY           SKY/WX    TMP DP  RH WIND       PRES   REMARKS
NEWARK/LIBERTY PTCLDY    32  24  72 W9        30.07S WCI  24
TETERBORO      CLEAR     33  24  69 NW8       30.05F WCI  26
CALDWELL       CLEAR     30  22  72 NW3       30.07S
MORRISTOWN       N/A     32  25  74 CALM      30.07S
SOMERVILLE     CLEAR     26  21  81 CALM      30.07F
SUSSEX         CLEAR     25  21  85 W3        30.06S
ANDOVER          N/A     24  20  84 CALM      30.06F
TRENTON        CLEAR     30  23  75 W5        30.09S WCI  25
MILLVILLE      FAIR      30  27  88 W6        30.11F WCI  24
ATLANTIC CITY  CLEAR     31  26  82 NW10      30.10S WCI  22
WRIGHTSTOWN    FAIR      30  25  79 NW7       30.07S WCI  23
TOMS RIVER     CLEAR     30  25  80 CALM      30.09F
BELMAR         CLEAR     30  19  64 W9        30.06F WCI  22
$$

PAZ047>061-062-071-280600-
EASTERN PENNSYLVANIA

CITY           SKY/WX    TMP DP  RH WIND       PRES   REMARKS
PHILADELPHIA   PTCLDY    32  25  75 W8        30.13S WCI  25
ALLENTOWN      CLEAR     27  22  81 W6        30.09F WCI  20
SCRANTON       CLOUDY    24  20  84 S7        30.05F WCI  16
$$

CTZ002-004>006-009-010-012-RIZ004-006-007-MAZ004-011-015-280600-
SOUTHERN NEW ENGLAND
 IN CT

CITY           SKY/WX    TMP DP  RH WIND       PRES   REMARKS
BRADLEY INTL   CLOUDY    32  26  78 N6        30.02S WCI  26
HARTFORD       CLOUDY    32  26  78 N7        30.03S WCI  26
DANBURY        MOCLDY    30  24  78 NW6       30.04S WCI  24
WTRBRY/OXFORD  CLOUDY    28  19  69 NW7       30.02F WCI  21
BRIDGEPORT     CLOUDY    34  26  72 NW8       30.04S WCI  27
MERIDEN        CLOUDY    33  24  69 NW7       30.03S WCI  27
NEW HAVEN      CLOUDY    36  25  64 NW10      30.03S WCI  28
CHESTER        CLOUDY    32  30  93 N8        30.00F WCI  25
GROTON         FLURRIES  32  30  92 N9        30.00F WCI  24
WILLIMANTIC    CLOUDY    32  27  81 N5        30.01F WCI  27

 IN RI

CITY           SKY/WX    TMP DP  RH WIND       PRES   REMARKS
PROVIDENCE     FLURRIES  32  28  85 NW8       30.00F WCI  25
BLOCK ISLAND   CLOUDY    34  27  75 N9G17     29.98S WCI  26
WESTERLY       CLOUDY    32  29  88 N7        30.00F WCI  26

 IN MA

CITY           SKY/WX    TMP DP  RH WIND       PRES   REMARKS
BOSTON         FLURRIES  31  27  85 NW10      30.01S WCI  22
WORCESTER      FLURRIES  26  24  92 NW5       29.96S WCI  20
WESTFIELD      LGT SNOW  30  27  88 N3        30.02S FOG
PROVINCETOWN   CLOUDY    41  34  75 NW8       29.96F
NANTUCKET      CLOUDY    39  36  89 N9        29.94F WCI  33
$$

ANZ330-335-338-340-345-350-353-355-280600-
COASTAL MARINE OBSERVATIONS


STATION/POSITION TIME  SKY/WX   TEMP    WIND        PRES    VSBY  WAVE
                                AIR SEA DIR/SP/G                  HT/PER
                 (UTC)          (F)     (DEG/KT/KT) (MB)    (MI)  (FT/S)
NY HARB ENTRANCE 0500            39 54  320/ 16/ 21 1017.6          4/ 4
4S FIRE IS       0500               52                N/A           4/ 9
20S FIRE ISLAND  0400            40 54  330/ 17/ 21 1016.3          4/10
23SW MTP         0500                                 N/A           4/11
HUDSON CANYON    0500            43 58  320/ 17/ 21 1015.3          6/ 6
EXECUTION ROCKS  0500            37 47  310/ 10/ 16   N/A
WESTERN LI SOUND 0500            35     330/ 10/ 14   N/A           1
CENTRAL LI SOUND 0400            36 50  350/ 14/ 17   N/A           1/ 3
EASTERN LI SOUND 0400            36 52  350/ 12/ 16   N/A
ROBBINS REEF     0500            34     310/ 14/ 18 1016.8
$$


>>>>>>>>>>>>>>>>>>>>>>>>>>>> KEY <<<<<<<<<<<<<<<<<<<<<<<<<<<
>                                                          <
>     SKY/WX - SKY CONDITION/PRESENT WEATHER               <
>     TMP    - TEMPERATURE IN FAHRENHEIT                   <
>     DP     - DEWPOINT IN FAHRENHEIT                      <
>     RH     - RELATIVE HUMIDITY IN PERCENT                <
>     WIND   - DIRECTION AND SPEED IN MPH                  <
>     PRES   - MEAN SEA LEVEL PRESSURE IN INCHES OF HG     <
>     WCI    - WIND CHILL INDEX                            <
>     VSB    - VISIBILITY IN MILES                         <
>     HX     - HEAT INDEX                                  <
>     TC     - TEMPERATURE IN CELSIUS                      <
>     VRB    - VARIABLE WIND DIRECTION                     <
>                                                          <
>>>>>>>>>>>>>>>>>>>>>>>>>>>> KEY <<<<<<<<<<<<<<<<<<<<<<<<<<<




USA.gov is the U.S. government's official web portal to all federal, state and local government web resources and services.